Tracking 19847 objects as of 16-Sep-2019
HD Live streaming from Space Station
objects crossing your sky now

FENGYUN 1C DEB

Track FENGYUN 1C DEB now!
10-day predictions


NORAD ID: 32201
Int'l Code: 1999-025CUX
Perigee: 775.6 km
Apogee: 990.9 km
Inclination: 99.2 °
Period: 102.5 minutes
Semi major axis: 7254 km
RCS: 0.0094 m2 (small)
Launch date: May 10, 1999
Source: People's Republic of China (PRC)
Launch site: Taiyaun Space Center, China (TSC)

Note: This is SATELLITE DEBRIS
aabbcc
Your satellite tracking list
Your tracking list is empty




NASA's NSSDC Master Catalog

Two Line Element Set (TLE):
1 32201U 99025CUX 19256.86214541  .00000701  00000-0  41863-3 0  9990
2 32201  99.1612 285.7219 0148414  69.1723 292.5268 14.05114851640286
Source of the keplerian elements: AFSPC